Location: Gro� Glienicke
(52.4675°N, 13.1079°E)
Time: 07:22:09
(UTC+00:00)

Cosmos 2369 Rocket - Pass Details

Date: 06 July 2020
Orbit: 830 x 851 km, 71.0° (Epoch: 04 August)

Event Time Altitude Azimuth Distance (km) Brightness Sun altitude
Rises 23:21:23 0° 327° (NNW) 3,385 6.3 -15.0°
Reaches altitude 10° 23:23:50 10° 325° (NW) 2,448 5.4 -14.9°
Maximum altitude 23:29:23 68° 244° (WSW) 899 2.2 -14.9°
Enters shadow 23:33:12 21° 166° (SSE) 1,805 3.3 -14.8°
